RYR1MG LEPA-LEVC

Flight info

Callsign RYR1MG
Flight time 0h 39m
Altitude 23000
Route EPAMA N733 ARGOR
Aircraft B738/M-SDE2E3FGHIRWXY/LB1

Departure

Time 2026-05-07 16:28
Airport Palma de Mallorca Airport (LEPA)

Arrival

Time 2026-05-07 17:08
Airport Valencia Airport (LEVC)
Time Latitude Longitude Altitude Speed Heading
2026-05-07 16:03 39.54832 2.73565 36 ft 0 kts 58°
2026-05-07 16:18 39.54830 2.73562 37 ft 2 kts 58°
2026-05-07 16:18 39.54820 2.73545 37 ft 2 kts 43°
2026-05-07 16:18 39.54806 2.73533 36 ft 2 kts 21°
2026-05-07 16:18 39.54790 2.73528 35 ft 2 kts 359°
2026-05-07 16:19 39.54774 2.73531 35 ft 2 kts 341°
2026-05-07 16:19 39.54759 2.73539 37 ft 2 kts 332°
2026-05-07 16:19 39.54754 2.73543 37 ft 0 kts 329°
2026-05-07 16:23 39.54774 2.73532 37 ft 6 kts 346°
2026-05-07 16:24 39.54810 2.73501 37 ft 3 kts 259°
2026-05-07 16:24 39.54795 2.73499 37 ft 4 kts 169°
2026-05-07 16:24 39.54750 2.73546 37 ft 14 kts 144°
2026-05-07 16:24 39.54661 2.73611 37 ft 14 kts 160°
2026-05-07 16:25 39.54566 2.73632 37 ft 14 kts 206°
2026-05-07 16:25 39.54508 2.73538 37 ft 13 kts 240°
2026-05-07 16:25 39.54462 2.73436 37 ft 13 kts 239°
2026-05-07 16:25 39.54417 2.73339 37 ft 13 kts 238°
2026-05-07 16:26 39.54372 2.73244 37 ft 12 kts 238°
2026-05-07 16:26 39.54343 2.73185 37 ft 5 kts 230°
2026-05-07 16:26 39.54312 2.73166 37 ft 6 kts 181°
2026-05-07 16:26 39.54286 2.73189 36 ft 8 kts 123°
2026-05-07 16:27 39.54268 2.73313 37 ft 13 kts 91°
2026-05-07 16:27 39.54268 2.73443 37 ft 17 kts 81°
2026-05-07 16:27 39.54348 2.73639 37 ft 46 kts 58°
2026-05-07 16:27 39.54642 2.74258 37 ft 113 kts 58°
2026-05-07 16:28 39.55136 2.75336 58 ft 162 kts 61°
2026-05-07 16:28 39.55736 2.76636 600 ft 168 kts 58°
2026-05-07 16:28 39.56351 2.77885 1374 ft 167 kts 58°
2026-05-07 16:28 39.56973 2.79140 2115 ft 167 kts 56°
2026-05-07 16:29 39.57651 2.80478 2491 ft 192 kts 61°
2026-05-07 16:29 39.58344 2.82028 2980 ft 202 kts 60°
2026-05-07 16:29 39.59081 2.83578 3581 ft 208 kts 61°
2026-05-07 16:29 39.59824 2.85206 4188 ft 215 kts 60°
2026-05-07 16:30 39.60603 2.86902 5019 ft 216 kts 60°
2026-05-07 16:30 39.61398 2.88560 5693 ft 224 kts 52°
2026-05-07 16:30 39.62704 2.89625 6423 ft 228 kts 12°
2026-05-07 16:30 39.64294 2.89511 7089 ft 235 kts 340°
2026-05-07 16:31 39.65649 2.88345 7807 ft 237 kts 309°
2026-05-07 16:31 39.66420 2.86464 8568 ft 237 kts 287°
2026-05-07 16:31 39.66842 2.84393 9353 ft 238 kts 282°
2026-05-07 16:31 39.67216 2.82292 10102 ft 240 kts 279°
2026-05-07 16:32 39.67317 2.80062 10509 ft 258 kts 267°
2026-05-07 16:32 39.67213 2.77656 10713 ft 283 kts 265°
2026-05-07 16:32 39.67055 2.74996 10916 ft 308 kts 264°
2026-05-07 16:32 39.66883 2.72113 11063 ft 333 kts 265°
2026-05-07 16:33 39.66712 2.69033 11400 ft 349 kts 265°
2026-05-07 16:33 39.66548 2.65864 12062 ft 355 kts 265°
2026-05-07 16:33 39.66390 2.62632 12721 ft 361 kts 265°
2026-05-07 16:33 39.66289 2.60476 13205 ft 364 kts 265°
2026-05-07 16:34 39.66139 2.57181 13916 ft 367 kts 265°
2026-05-07 16:34 39.65990 2.53867 14611 ft 369 kts 265°
2026-05-07 16:34 39.65841 2.50532 15287 ft 371 kts 265°
2026-05-07 16:34 39.65691 2.47181 15949 ft 373 kts 265°
2026-05-07 16:35 39.65491 2.42714 16844 ft 376 kts 265°
2026-05-07 16:35 39.65338 2.39320 17499 ft 378 kts 265°
2026-05-07 16:35 39.65233 2.37020 17921 ft 380 kts 265°
2026-05-07 16:35 39.65024 2.32458 18657 ft 384 kts 265°
2026-05-07 16:36 39.64918 2.30159 19020 ft 386 kts 265°
2026-05-07 16:36 39.64757 2.26681 19607 ft 387 kts 264°
2026-05-07 16:36 39.64594 2.23185 20155 ft 389 kts 264°
2026-05-07 16:36 39.64429 2.19670 20675 ft 392 kts 264°
2026-05-07 16:37 39.64261 2.16122 21199 ft 395 kts 264°
2026-05-07 16:37 39.64037 2.11405 21914 ft 397 kts 264°
2026-05-07 16:37 39.63921 2.08982 22262 ft 399 kts 264°
2026-05-07 16:37 39.63747 2.05377 22822 ft 400 kts 264°
2026-05-07 16:38 39.63575 2.01821 22881 ft 401 kts 264°
2026-05-07 16:38 39.63401 1.98230 22921 ft 398 kts 264°
2026-05-07 16:38 39.63225 1.94644 22919 ft 399 kts 264°
2026-05-07 16:38 39.63048 1.91050 22918 ft 399 kts 264°
2026-05-07 16:39 39.62869 1.87457 22925 ft 399 kts 264°
2026-05-07 16:39 39.62689 1.83857 22918 ft 399 kts 264°
2026-05-07 16:39 39.62508 1.80267 22918 ft 399 kts 264°
2026-05-07 16:39 39.62326 1.76668 22910 ft 399 kts 264°
2026-05-07 16:40 39.62144 1.73078 22914 ft 399 kts 264°
2026-05-07 16:40 39.61963 1.69541 22915 ft 398 kts 264°
2026-05-07 16:40 39.61778 1.65965 22912 ft 398 kts 264°
2026-05-07 16:40 39.61592 1.62382 22914 ft 397 kts 264°
2026-05-07 16:41 39.61406 1.58814 22914 ft 397 kts 264°
2026-05-07 16:41 39.61219 1.55248 22913 ft 396 kts 264°
2026-05-07 16:41 39.61031 1.51683 22910 ft 396 kts 264°
2026-05-07 16:41 39.60842 1.48117 22919 ft 396 kts 264°
2026-05-07 16:42 39.60653 1.44555 22919 ft 396 kts 264°
2026-05-07 16:42 39.60464 1.41045 22914 ft 396 kts 264°
2026-05-07 16:42 39.60272 1.37487 22911 ft 396 kts 264°
2026-05-07 16:42 39.60077 1.33926 22915 ft 396 kts 264°
2026-05-07 16:43 39.59880 1.30370 22915 ft 395 kts 263°
2026-05-07 16:43 39.59682 1.26819 22916 ft 395 kts 263°
2026-05-07 16:43 39.59483 1.23260 22915 ft 395 kts 264°
2026-05-07 16:43 39.59283 1.19707 22917 ft 395 kts 263°
2026-05-07 16:44 39.59082 1.16156 22917 ft 395 kts 263°
2026-05-07 16:44 39.58883 1.12644 22917 ft 395 kts 263°
2026-05-07 16:44 39.58681 1.09095 22925 ft 395 kts 263°
2026-05-07 16:44 39.58477 1.05542 22925 ft 395 kts 263°
2026-05-07 16:45 39.58272 1.01982 22924 ft 395 kts 263°
2026-05-07 16:45 39.58066 0.98429 22924 ft 395 kts 263°
2026-05-07 16:45 39.57859 0.94876 22930 ft 395 kts 263°
2026-05-07 16:45 39.57651 0.91322 22928 ft 396 kts 263°
2026-05-07 16:46 39.57442 0.87767 22937 ft 395 kts 263°
2026-05-07 16:46 39.57232 0.84220 22935 ft 395 kts 263°
2026-05-07 16:46 39.57021 0.80667 22927 ft 395 kts 263°
2026-05-07 16:46 39.56811 0.77165 22941 ft 395 kts 264°
2026-05-07 16:47 39.56598 0.73609 22936 ft 395 kts 264°
2026-05-07 16:47 39.56385 0.70066 22932 ft 393 kts 264°
2026-05-07 16:47 39.56176 0.66609 22921 ft 377 kts 264°
2026-05-07 16:47 39.55974 0.63276 22913 ft 366 kts 263°
2026-05-07 16:48 39.55774 0.60005 22930 ft 363 kts 263°
2026-05-07 16:48 39.55573 0.56741 22916 ft 364 kts 264°
2026-05-07 16:48 39.55370 0.53449 22524 ft 365 kts 264°
2026-05-07 16:48 39.55168 0.50176 22042 ft 363 kts 264°
2026-05-07 16:49 39.54971 0.46986 21558 ft 359 kts 264°
2026-05-07 16:49 39.54772 0.43779 21067 ft 355 kts 264°
2026-05-07 16:49 39.54574 0.40603 20571 ft 352 kts 264°
2026-05-07 16:49 39.54377 0.37454 20089 ft 349 kts 264°
2026-05-07 16:50 39.54180 0.34328 19602 ft 347 kts 264°
2026-05-07 16:50 39.54001 0.31222 19121 ft 345 kts 268°
2026-05-07 16:50 39.54309 0.28157 18746 ft 343 kts 283°
2026-05-07 16:50 39.55038 0.25233 18421 ft 340 kts 287°
2026-05-07 16:51 39.55833 0.22353 18069 ft 339 kts 287°
2026-05-07 16:51 39.56628 0.19519 17714 ft 340 kts 288°
2026-05-07 16:51 39.57429 0.16632 17367 ft 342 kts 287°
2026-05-07 16:51 39.58225 0.13724 17021 ft 342 kts 287°
2026-05-07 16:52 39.59010 0.10826 16683 ft 340 kts 287°
2026-05-07 16:52 39.59788 0.07934 16356 ft 339 kts 287°
2026-05-07 16:52 39.60559 0.05052 16029 ft 338 kts 287°
2026-05-07 16:52 39.61327 0.02171 15702 ft 337 kts 287°
2026-05-07 16:53 39.62090 -0.00697 15381 ft 336 kts 287°
2026-05-07 16:53 39.62843 -0.03527 15064 ft 336 kts 288°
2026-05-07 16:53 39.63601 -0.06380 14741 ft 335 kts 288°
2026-05-07 16:53 39.64359 -0.09238 14419 ft 334 kts 288°
2026-05-07 16:54 39.65114 -0.12086 14100 ft 334 kts 288°
2026-05-07 16:54 39.65985 -0.14869 13773 ft 334 kts 297°
2026-05-07 16:54 39.67223 -0.17413 13423 ft 334 kts 305°
2026-05-07 16:54 39.68743 -0.19696 13075 ft 334 kts 314°
2026-05-07 16:55 39.70391 -0.21791 12820 ft 329 kts 313°
2026-05-07 16:55 39.71921 -0.23969 12557 ft 324 kts 308°
2026-05-07 16:55 39.73286 -0.26273 12293 ft 321 kts 303°
2026-05-07 16:55 39.74469 -0.28682 12042 ft 321 kts 299°
2026-05-07 16:56 39.75514 -0.31248 11783 ft 320 kts 295°
2026-05-07 16:56 39.76405 -0.33891 11551 ft 320 kts 291°
2026-05-07 16:56 39.77737 -0.39390 10897 ft 316 kts 283°
2026-05-07 16:57 39.78158 -0.42165 10575 ft 310 kts 278°
2026-05-07 16:57 39.78415 -0.44919 10266 ft 304 kts 275°
2026-05-07 16:57 39.78518 -0.47608 9961 ft 299 kts 271°
2026-05-07 16:57 39.78475 -0.50263 9897 ft 286 kts 267°
2026-05-07 16:58 39.78305 -0.52769 9870 ft 272 kts 264°
2026-05-07 16:58 39.78026 -0.55155 9695 ft 264 kts 260°
2026-05-07 16:58 39.77637 -0.57478 9373 ft 263 kts 256°
2026-05-07 16:58 39.77139 -0.59766 8976 ft 264 kts 253°
2026-05-07 16:59 39.76543 -0.62009 8695 ft 261 kts 250°
2026-05-07 16:59 39.75856 -0.64171 8222 ft 259 kts 246°
2026-05-07 16:59 39.75066 -0.66281 7807 ft 259 kts 243°
2026-05-07 16:59 39.74188 -0.68309 7453 ft 256 kts 239°
2026-05-07 17:00 39.73239 -0.70225 7193 ft 256 kts 236°
2026-05-07 17:00 39.72185 -0.72100 6944 ft 258 kts 232°
2026-05-07 17:00 39.71041 -0.73897 6680 ft 260 kts 229°
2026-05-07 17:00 39.69807 -0.75639 6410 ft 263 kts 226°
2026-05-07 17:01 39.68498 -0.77302 6141 ft 264 kts 222°
2026-05-07 17:01 39.67110 -0.78857 5879 ft 264 kts 218°
2026-05-07 17:01 39.65486 -0.79869 5576 ft 260 kts 186°
2026-05-07 17:01 39.63746 -0.79541 5337 ft 254 kts 154°
2026-05-07 17:02 39.62398 -0.78171 5076 ft 250 kts 128°
2026-05-07 17:02 39.61284 -0.76448 4727 ft 250 kts 137°
2026-05-07 17:02 39.59992 -0.74990 4396 ft 243 kts 139°
2026-05-07 17:02 39.58764 -0.73552 4145 ft 232 kts 128°
2026-05-07 17:03 39.57949 -0.71803 3916 ft 223 kts 118°
2026-05-07 17:03 39.57257 -0.70034 3645 ft 218 kts 117°
2026-05-07 17:03 39.56585 -0.68281 3358 ft 213 kts 117°
2026-05-07 17:03 39.55945 -0.66602 3084 ft 203 kts 117°
2026-05-07 17:04 39.55339 -0.65010 2807 ft 190 kts 117°
2026-05-07 17:04 39.54781 -0.63545 2551 ft 179 kts 117°
2026-05-07 17:04 39.54255 -0.62153 2332 ft 167 kts 116°
2026-05-07 17:04 39.53756 -0.60842 2126 ft 154 kts 117°
2026-05-07 17:05 39.53296 -0.59649 1913 ft 142 kts 117°
2026-05-07 17:05 39.52874 -0.58531 1713 ft 136 kts 116°
2026-05-07 17:05 39.52451 -0.57419 1528 ft 144 kts 116°
2026-05-07 17:05 39.52007 -0.56257 1379 ft 145 kts 116°
2026-05-07 17:06 39.51560 -0.55069 1117 ft 144 kts 116°
2026-05-07 17:06 39.51121 -0.53917 934 ft 146 kts 114°
2026-05-07 17:06 39.50676 -0.52736 755 ft 145 kts 116°
2026-05-07 17:06 39.50244 -0.51590 581 ft 139 kts 115°
2026-05-07 17:07 39.49817 -0.50475 384 ft 137 kts 115°
2026-05-07 17:07 39.49407 -0.49389 231 ft 129 kts 115°
2026-05-07 17:07 39.49056 -0.48480 216 ft 96 kts 116°
2026-05-07 17:07 39.48814 -0.47846 212 ft 62 kts 117°
2026-05-07 17:08 39.48675 -0.47487 204 ft 28 kts 115°
2026-05-07 17:08 39.48653 -0.47318 193 ft 19 kts 81°
2026-05-07 17:08 39.48726 -0.47189 195 ft 18 kts 24°
2026-05-07 17:08 39.48844 -0.47219 193 ft 18 kts 337°
2026-05-07 17:09 39.48933 -0.47258 199 ft 12 kts 359°
2026-05-07 17:09 39.49001 -0.47230 197 ft 0 kts 19°